Location: Unspecified
(0.0000°N, 0.0000°E)
Time: 03:13:28
(UTC+00:00)

LightSail 2 - Pass Details

Date: 16 November 2019
Orbit: 701 x 726 km, 24.0° (Epoch: 11 November)

Event Time Altitude Azimuth Distance (km) Brightness Sun altitude
Rises 19:47:19 0° 228° (SW) 3,075 9.5 -28.8°
Reaches altitude 10° 19:49:59 10° 218° (SW) 2,155 8.3 -29.5°
Enters shadow 19:53:09 27° 184° (S) 1,322 6.7 -30.2°
